Location: Astronomy Club of Akron Observatory
(40.9700°N, 81.5606°W)
Time: 10:38:56
(UTC-04:00)

ISS - Pass Details

Date: 13 July 2018
Orbit: 402 x 408 km, 51.6° (Epoch: 20 July)

Event Time Altitude Azimuth Distance (km) Brightness Sun altitude
Exits shadow 03:41:11 - 303° (WNW) 1,679 -0.7 -20.4°
Reaches altitude 10° 03:41:59 10° 312° (NW) 1,469 -0.9 -20.3°
Maximum altitude 03:43:57 15° 349° (N) 1,213 -0.8 -20.1°
Drops below altitude 10° 03:45:56 10° 26° (NNE) 1,473 0.2 -19.9°
Sets 03:48:43 0° 52° (NE) 2,336 1.4 -19.7°
